Time,TemperatureF,DewpointF,PressureIn,WindDirection,WindDirectionDegrees,WindSpeedMPH,WindSpeedGustMPH,Humidity,HourlyPrecipIn,Conditions,Clouds,dailyrainin,SoftwareType,DateUTC
2013-09-11 00:01:00,74.1,62.9,29.65,West,275,0.0,0.0,68,0.00,,SKC,0.00,VWS V14.01,2013-09-11 04:01:00,
2013-09-11 00:06:00,74.1,63.3,29.65,West,275,0.0,0.0,69,0.00,,SKC,0.00,VWS V14.01,2013-09-11 04:06:00,
2013-09-11 00:11:00,74.1,63.3,29.65,West,275,0.0,0.0,69,0.00,,SKC,0.00,VWS V14.01,2013-09-11 04:11:00,
2013-09-11 00:16:00,74.1,63.3,29.65,West,275,0.0,0.0,69,0.00,,SKC,0.00,VWS V14.01,2013-09-11 04:16:00,
2013-09-11 00:21:00,74.1,63.3,29.65,West,275,0.0,0.0,69,0.00,,SKC,0.00,VWS V14.01,2013-09-11 04:21:00,
2013-09-11 00:26:00,74.1,63.7,29.65,West,275,0.0,0.0,70,0.00,,SKC,0.00,VWS V14.01,2013-09-11 04:26:00,
2013-09-11 00:31:00,74.1,63.7,29.65,West,275,0.0,0.0,70,0.00,,SKC,0.00,VWS V14.01,2013-09-11 04:31:00,
2013-09-11 00:36:00,74.1,63.7,29.65,West,275,0.0,0.0,70,0.00,,SKC,0.00,VWS V14.01,2013-09-11 04:36:00,
2013-09-11 00:41:00,74.1,63.7,29.65,West,275,0.0,0.0,70,0.00,,SKC,0.00,VWS V14.01,2013-09-11 04:41:00,
2013-09-11 00:46:00,73.9,63.5,29.65,West,275,0.0,0.0,70,0.00,,SKC,0.00,VWS V14.01,2013-09-11 04:46:00,
2013-09-11 00:51:00,73.8,63.4,29.65,West,275,0.0,0.0,70,0.00,,SKC,0.00,VWS V14.01,2013-09-11 04:51:00,
2013-09-11 00:56:00,73.8,63.4,29.65,West,275,0.0,0.0,70,0.00,,SKC,0.00,VWS V14.01,2013-09-11 04:56:00,
2013-09-11 01:01:00,73.6,63.2,29.65,West,275,0.0,0.0,70,0.00,,SKC,0.00,VWS V14.01,2013-09-11 05:01:00,
2013-09-11 01:06:00,73.6,63.2,29.65,West,275,0.0,0.0,70,0.00,,SKC,0.00,VWS V14.01,2013-09-11 05:06:00,
2013-09-11 01:11:00,73.6,63.2,29.65,West,275,0.0,0.0,70,0.00,,SKC,0.00,VWS V14.01,2013-09-11 05:11:00,
2013-09-11 01:16:00,73.4,63.0,29.65,West,275,0.0,0.0,70,0.00,,SKC,0.00,VWS V14.01,2013-09-11 05:16:00,
2013-09-11 01:21:00,73.4,63.4,29.65,West,275,0.0,0.0,71,0.00,,SKC,0.00,VWS V14.01,2013-09-11 05:21:00,
2013-09-11 01:26:00,73.4,63.4,29.65,West,275,0.0,0.0,71,0.00,,SKC,0.00,VWS V14.01,2013-09-11 05:26:00,
2013-09-11 01:31:00,73.4,63.4,29.65,West,275,0.0,0.0,71,0.00,,SKC,0.00,VWS V14.01,2013-09-11 05:31:00,
2013-09-11 01:36:00,73.4,63.4,29.65,West,275,0.0,0.0,71,0.00,,SKC,0.00,VWS V14.01,2013-09-11 05:36:00,
2013-09-11 01:41:00,73.2,63.3,29.65,West,275,0.0,0.0,71,0.00,,SKC,0.00,VWS V14.01,2013-09-11 05:41:00,
2013-09-11 01:46:00,73.2,63.7,29.65,West,275,0.0,0.0,72,0.00,,SKC,0.00,VWS V14.01,2013-09-11 05:46:00,
2013-09-11 01:51:00,73.2,63.7,29.65,West,275,0.0,0.0,72,0.00,,SKC,0.00,VWS V14.01,2013-09-11 05:51:00,
2013-09-11 01:56:00,73.2,63.7,29.65,West,275,0.0,0.0,72,0.00,,SKC,0.00,VWS V14.01,2013-09-11 05:56:00,
2013-09-11 02:01:00,73.2,63.7,29.65,West,275,0.0,0.0,72,0.00,,SKC,0.00,VWS V14.01,2013-09-11 06:01:00,
2013-09-11 02:06:00,73.2,63.7,29.65,West,275,0.0,0.0,72,0.00,,SKC,0.00,VWS V14.01,2013-09-11 06:06:00,
2013-09-11 02:11:00,73.2,63.7,29.65,West,275,0.0,0.0,72,0.00,,SKC,0.00,VWS V14.01,2013-09-11 06:11:00,
2013-09-11 02:16:00,73.2,64.1,29.65,West,275,0.0,0.0,73,0.00,,SKC,0.00,VWS V14.01,2013-09-11 06:16:00,
2013-09-11 02:21:00,73.2,64.1,29.65,West,275,0.0,0.0,73,0.00,,SKC,0.00,VWS V14.01,2013-09-11 06:21:00,
2013-09-11 02:26:00,73.2,64.1,29.65,West,275,0.0,0.0,73,0.00,,SKC,0.00,VWS V14.01,2013-09-11 06:26:00,
2013-09-11 02:31:00,73.2,64.1,29.65,West,275,0.0,0.0,73,0.00,,SKC,0.00,VWS V14.01,2013-09-11 06:31:00,
2013-09-11 02:36:00,73.2,64.1,29.62,West,275,0.0,0.0,73,0.00,,SKC,0.00,VWS V14.01,2013-09-11 06:36:00,
2013-09-11 02:41:00,73.0,63.9,29.62,West,275,0.0,0.0,73,0.00,,SKC,0.00,VWS V14.01,2013-09-11 06:41:00,
2013-09-11 02:46:00,73.2,64.4,29.62,West,275,0.0,0.0,74,0.00,,SKC,0.00,VWS V14.01,2013-09-11 06:46:00,
2013-09-11 02:51:00,73.2,64.4,29.62,West,275,0.0,0.0,74,0.00,,SKC,0.00,VWS V14.01,2013-09-11 06:51:00,
2013-09-11 02:56:00,73.2,64.4,29.62,West,275,0.0,0.0,74,0.00,,SKC,0.00,VWS V14.01,2013-09-11 06:56:00,
2013-09-11 03:01:00,73.0,64.3,29.62,West,275,0.0,0.0,74,0.00,,SKC,0.00,VWS V14.01,2013-09-11 07:01:00,
2013-09-11 03:06:00,73.2,64.4,29.62,West,275,0.0,0.0,74,0.00,,SKC,0.00,VWS V14.01,2013-09-11 07:06:00,
2013-09-11 03:11:00,73.0,64.3,29.62,West,275,0.0,0.0,74,0.00,,SKC,0.00,VWS V14.01,2013-09-11 07:11:00,
2013-09-11 03:15:00,72.9,64.1,29.62,West,275,0.0,0.0,74,0.00,,SKC,0.00,VWS V14.01,2013-09-11 07:15:00,
2013-09-11 03:20:00,72.9,64.1,29.62,West,275,0.0,0.0,74,0.00,,SKC,0.00,VWS V14.01,2013-09-11 07:20:00,
2013-09-11 03:25:00,72.9,64.5,29.62,West,275,0.0,0.0,75,0.00,,SKC,0.00,VWS V14.01,2013-09-11 07:25:00,
2013-09-11 03:30:00,72.7,64.3,29.62,West,275,0.0,0.0,75,0.00,,SKC,0.00,VWS V14.01,2013-09-11 07:30:00,
2013-09-11 03:35:00,72.7,64.3,29.62,West,275,0.0,0.0,75,0.00,,SKC,0.00,VWS V14.01,2013-09-11 07:35:00,
2013-09-11 03:40:00,72.7,64.3,29.62,West,275,0.0,0.0,75,0.00,,SKC,0.00,VWS V14.01,2013-09-11 07:40:00,
2013-09-11 03:45:00,72.7,64.3,29.62,West,275,0.0,0.0,75,0.00,,SKC,0.00,VWS V14.01,2013-09-11 07:45:00,
2013-09-11 03:51:00,72.5,64.1,29.62,West,275,0.0,0.0,75,0.00,,SKC,0.00,VWS V14.01,2013-09-11 07:51:00,
2013-09-11 03:56:00,72.5,64.1,29.62,West,275,0.0,0.0,75,0.00,,SKC,0.00,VWS V14.01,2013-09-11 07:56:00,
2013-09-11 04:00:00,72.5,64.1,29.62,West,275,0.0,0.0,75,0.00,,SKC,0.00,VWS V14.01,2013-09-11 08:00:00,
2013-09-11 04:05:00,72.3,64.0,29.62,West,275,0.0,0.0,75,0.00,,SKC,0.00,VWS V14.01,2013-09-11 08:05:00,
2013-09-11 04:10:00,72.3,64.0,29.62,West,275,0.0,0.0,75,0.00,,SKC,0.00,VWS V14.01,2013-09-11 08:10:00,
2013-09-11 04:15:00,72.1,63.8,29.62,West,275,0.0,0.0,75,0.00,,SKC,0.00,VWS V14.01,2013-09-11 08:15:00,
2013-09-11 04:20:00,72.1,63.8,29.62,West,275,0.0,0.0,75,0.00,,SKC,0.00,VWS V14.01,2013-09-11 08:20:00,
2013-09-11 04:25:00,72.1,63.8,29.62,West,275,0.0,0.0,75,0.00,,SKC,0.00,VWS V14.01,2013-09-11 08:25:00,
2013-09-11 04:30:00,72.1,63.8,29.62,West,275,0.0,0.0,75,0.00,,SKC,0.00,VWS V14.01,2013-09-11 08:30:00,
2013-09-11 04:35:00,72.0,63.6,29.62,West,275,0.0,0.0,75,0.00,,SKC,0.00,VWS V14.01,2013-09-11 08:35:00,
2013-09-11 04:40:00,72.0,63.6,29.62,West,275,0.0,0.0,75,0.00,,SKC,0.00,VWS V14.01,2013-09-11 08:40:00,
2013-09-11 04:45:00,71.8,63.4,29.62,West,275,0.0,0.0,75,0.00,,SKC,0.00,VWS V14.01,2013-09-11 08:45:00,
2013-09-11 04:50:00,71.8,63.4,29.62,West,275,0.0,0.0,75,0.00,,SKC,0.00,VWS V14.01,2013-09-11 08:50:00,
2013-09-11 04:55:00,71.8,63.4,29.62,West,275,0.0,0.0,75,0.00,,SKC,0.00,VWS V14.01,2013-09-11 08:55:00,
2013-09-11 05:00:00,71.6,63.3,29.62,West,275,0.0,0.0,75,0.00,,SKC,0.00,VWS V14.01,2013-09-11 09:00:00,
2013-09-11 05:05:00,71.6,63.6,29.62,West,275,0.0,0.0,76,0.00,,SKC,0.00,VWS V14.01,2013-09-11 09:05:00,
2013-09-11 05:10:00,71.6,63.6,29.62,West,275,0.0,0.0,76,0.00,,SKC,0.00,VWS V14.01,2013-09-11 09:10:00,
2013-09-11 05:15:00,71.8,63.8,29.62,West,275,0.0,0.0,76,0.00,,SKC,0.00,VWS V14.01,2013-09-11 09:15:00,
2013-09-11 05:20:00,71.6,63.6,29.62,West,275,0.0,0.0,76,0.00,,SKC,0.00,VWS V14.01,2013-09-11 09:20:00,
2013-09-11 05:25:00,71.6,63.6,29.62,West,275,0.0,0.0,76,0.00,,SKC,0.00,VWS V14.01,2013-09-11 09:25:00,
2013-09-11 05:30:00,71.6,63.6,29.62,West,275,0.0,0.0,76,0.00,,SKC,0.00,VWS V14.01,2013-09-11 09:30:00,
2013-09-11 05:35:00,71.6,63.6,29.62,West,275,0.0,0.0,76,0.00,,SKC,0.00,VWS V14.01,2013-09-11 09:35:00,
2013-09-11 05:40:00,71.6,63.6,29.62,West,275,0.0,0.0,76,0.00,,SKC,0.00,VWS V14.01,2013-09-11 09:40:00,
2013-09-11 05:45:00,71.4,63.5,29.62,West,275,0.0,0.0,76,0.00,,SKC,0.00,VWS V14.01,2013-09-11 09:45:00,
2013-09-11 05:50:00,71.4,63.5,29.65,West,275,0.0,0.0,76,0.00,,SKC,0.00,VWS V14.01,2013-09-11 09:50:00,
2013-09-11 05:55:00,71.4,63.5,29.65,West,275,0.0,0.0,76,0.00,,SKC,0.00,VWS V14.01,2013-09-11 09:55:00,
2013-09-11 06:00:00,71.2,63.3,29.65,West,275,0.0,0.0,76,0.00,,SKC,0.00,VWS V14.01,2013-09-11 10:00:00,
2013-09-11 06:05:00,71.2,63.3,29.65,West,275,0.0,0.0,76,0.00,,SKC,0.00,VWS V14.01,2013-09-11 10:05:00,
2013-09-11 06:11:00,71.2,63.7,29.65,West,275,0.0,0.0,77,0.00,,SKC,0.00,VWS V14.01,2013-09-11 10:11:00,
2013-09-11 06:15:00,71.1,63.5,29.65,West,275,0.0,0.0,77,0.00,,SKC,0.00,VWS V14.01,2013-09-11 10:15:00,
2013-09-11 06:20:00,71.1,63.5,29.65,West,275,0.0,0.0,77,0.00,,SKC,0.00,VWS V14.01,2013-09-11 10:20:00,
2013-09-11 06:25:00,71.1,63.5,29.65,West,275,0.0,0.0,77,0.00,,SKC,0.00,VWS V14.01,2013-09-11 10:25:00,
2013-09-11 06:31:00,71.1,63.5,29.65,West,275,0.0,0.0,77,0.00,,SKC,0.00,VWS V14.01,2013-09-11 10:31:00,
2013-09-11 06:36:00,71.1,63.5,29.65,West,275,0.0,0.0,77,0.00,,SKC,0.00,VWS V14.01,2013-09-11 10:36:00,
2013-09-11 06:41:00,71.1,63.5,29.65,West,275,0.0,0.0,77,0.00,,SKC,0.00,VWS V14.01,2013-09-11 10:41:00,
2013-09-11 06:46:00,70.9,63.3,29.65,West,275,0.0,0.0,77,0.00,,SKC,0.00,VWS V14.01,2013-09-11 10:46:00,
2013-09-11 06:51:00,70.9,63.3,29.65,West,275,0.0,0.0,77,0.00,,SKC,0.00,VWS V14.01,2013-09-11 10:51:00,
2013-09-11 06:55:00,70.9,63.3,29.65,West,275,0.0,0.0,77,0.00,,SKC,0.00,VWS V14.01,2013-09-11 10:55:00,
2013-09-11 07:00:00,70.9,63.3,29.65,West,275,0.0,0.0,77,0.00,,SKC,0.00,VWS V14.01,2013-09-11 11:00:00,
2013-09-11 07:05:00,70.9,63.3,29.65,West,275,0.0,0.0,77,0.00,,SKC,0.00,VWS V14.01,2013-09-11 11:05:00,
2013-09-11 07:10:00,70.9,63.7,29.65,West,275,0.0,0.0,78,0.00,,SKC,0.00,VWS V14.01,2013-09-11 11:10:00,
2013-09-11 07:15:00,71.1,63.9,29.65,West,275,0.0,0.0,78,0.00,,SKC,0.00,VWS V14.01,2013-09-11 11:15:00,
2013-09-11 07:20:00,71.1,63.5,29.65,West,275,0.0,0.0,77,0.00,,SKC,0.00,VWS V14.01,2013-09-11 11:20:00,
2013-09-11 07:25:00,70.9,63.3,29.65,West,275,0.0,0.0,77,0.00,,SKC,0.00,VWS V14.01,2013-09-11 11:25:00,
2013-09-11 07:30:00,70.9,63.7,29.65,West,275,0.0,0.0,78,0.00,,SKC,0.00,VWS V14.01,2013-09-11 11:30:00,
2013-09-11 07:35:00,70.9,63.7,29.68,West,275,0.0,0.0,78,0.00,,SKC,0.00,VWS V14.01,2013-09-11 11:35:00,
2013-09-11 07:40:00,71.1,63.9,29.68,West,275,0.0,0.0,78,0.00,,SKC,0.00,VWS V14.01,2013-09-11 11:40:00,
2013-09-11 07:45:00,71.4,64.6,29.68,West,275,0.0,0.0,79,0.00,,SKC,0.00,VWS V14.01,2013-09-11 11:45:00,
2013-09-11 07:50:00,71.6,64.4,29.68,West,275,0.0,0.0,78,0.00,,SKC,0.00,VWS V14.01,2013-09-11 11:50:00,
2013-09-11 07:55:00,71.8,64.9,29.68,West,275,0.0,0.0,79,0.00,,SKC,0.00,VWS V14.01,2013-09-11 11:55:00,
2013-09-11 08:00:00,72.0,65.1,29.68,West,275,0.0,0.0,79,0.00,,SKC,0.00,VWS V14.01,2013-09-11 12:00:00,
2013-09-11 08:05:00,72.3,65.4,29.68,West,275,0.0,0.0,79,0.00,,SKC,0.00,VWS V14.01,2013-09-11 12:05:00,
2013-09-11 08:10:00,72.5,65.6,29.68,West,275,0.0,0.0,79,0.00,,SKC,0.00,VWS V14.01,2013-09-11 12:10:00,
2013-09-11 08:15:00,72.7,66.2,29.68,West,275,0.0,0.0,80,0.00,,SKC,0.00,VWS V14.01,2013-09-11 12:15:00,
2013-09-11 08:20:00,72.9,66.3,29.68,West,275,0.0,0.0,80,0.00,,SKC,0.00,VWS V14.01,2013-09-11 12:20:00,
2013-09-11 08:25:00,73.2,66.7,29.68,West,275,0.0,0.0,80,0.00,,SKC,0.00,VWS V14.01,2013-09-11 12:25:00,
2013-09-11 08:30:00,73.4,66.9,29.68,West,275,0.0,0.0,80,0.00,,SKC,0.00,VWS V14.01,2013-09-11 12:30:00,
2013-09-11 08:35:00,73.6,67.0,29.68,West,275,0.0,0.0,80,0.00,,SKC,0.00,VWS V14.01,2013-09-11 12:35:00,
2013-09-11 08:40:00,73.8,67.6,29.68,West,275,0.0,0.0,81,0.00,,SKC,0.00,VWS V14.01,2013-09-11 12:40:00,
2013-09-11 08:45:00,74.1,67.6,29.68,West,275,0.0,0.0,80,0.00,,SKC,0.00,VWS V14.01,2013-09-11 12:45:00,
2013-09-11 08:50:00,74.5,67.9,29.68,West,275,0.0,0.0,80,0.00,,SKC,0.00,VWS V14.01,2013-09-11 12:50:00,
2013-09-11 08:55:00,75.0,68.4,29.68,West,275,0.0,0.0,80,0.00,,SKC,0.00,VWS V14.01,2013-09-11 12:55:00,
2013-09-11 09:00:00,75.6,69.0,29.68,West,275,0.0,0.0,80,0.00,,SKC,0.00,VWS V14.01,2013-09-11 13:00:00,
2013-09-11 09:05:00,75.9,68.6,29.68,West,275,0.0,0.0,78,0.00,,SKC,0.00,VWS V14.01,2013-09-11 13:05:00,
2013-09-11 09:10:00,76.3,68.6,29.68,West,275,0.0,0.0,77,0.00,,SKC,0.00,VWS V14.01,2013-09-11 13:10:00,
2013-09-11 09:15:00,76.8,68.7,29.68,West,275,0.0,0.0,76,0.00,,SKC,0.00,VWS V14.01,2013-09-11 13:15:00,
2013-09-11 09:20:00,77.2,68.3,29.68,West,275,0.0,0.0,74,0.00,,SKC,0.00,VWS V14.01,2013-09-11 13:20:00,
2013-09-11 09:25:00,77.5,67.8,29.68,West,275,0.0,0.0,72,0.00,,SKC,0.00,VWS V14.01,2013-09-11 13:25:00,
2013-09-11 09:30:00,77.9,65.2,29.68,West,275,0.0,0.0,65,0.00,,SKC,0.00,VWS V14.01,2013-09-11 13:30:00,
2013-09-11 09:35:00,78.6,66.3,29.68,West,275,0.0,0.0,66,0.00,,SKC,0.00,VWS V14.01,2013-09-11 13:35:00,
2013-09-11 09:40:00,78.8,64.7,29.68,West,275,0.0,0.0,62,0.00,,SKC,0.00,VWS V14.01,2013-09-11 13:40:00,
2013-09-11 09:45:00,79.5,60.9,29.68,West,275,0.0,0.0,53,0.00,,SKC,0.00,VWS V14.01,2013-09-11 13:45:00,
2013-09-11 09:50:00,80.1,59.2,29.65,West,275,0.0,0.0,49,0.00,,SKC,0.00,VWS V14.01,2013-09-11 13:50:00,
2013-09-11 09:55:00,80.6,57.9,29.65,West,275,0.0,0.0,46,0.00,,SKC,0.00,VWS V14.01,2013-09-11 13:55:00,
2013-09-11 10:00:00,81.3,57.3,29.65,West,275,0.0,0.0,44,0.00,,SKC,0.00,VWS V14.01,2013-09-11 14:00:00,
2013-09-11 10:05:00,81.9,56.5,29.65,West,275,0.0,0.0,42,0.00,,SKC,0.00,VWS V14.01,2013-09-11 14:05:00,
2013-09-11 10:10:00,82.6,55.8,29.65,West,275,0.0,0.0,40,0.00,,SKC,0.00,VWS V14.01,2013-09-11 14:10:00,
2013-09-11 10:15:00,83.1,55.6,29.65,West,275,0.0,0.0,39,0.00,,SKC,0.00,VWS V14.01,2013-09-11 14:15:00,
2013-09-11 10:20:00,83.5,55.2,29.65,West,275,0.0,0.0,38,0.00,,SKC,0.00,VWS V14.01,2013-09-11 14:20:00,
2013-09-11 10:25:00,83.8,54.1,29.65,West,275,0.0,0.0,36,0.00,,SKC,0.00,VWS V14.01,2013-09-11 14:25:00,
2013-09-11 10:30:00,84.2,55.1,29.65,SW,220,0.0,0.0,37,0.00,,SKC,0.00,VWS V14.01,2013-09-11 14:30:00,
2013-09-11 10:35:00,84.7,54.1,29.65,SW,215,0.0,0.0,35,0.00,,SKC,0.00,VWS V14.01,2013-09-11 14:35:00,
2013-09-11 10:40:00,84.9,53.5,29.65,SW,215,0.0,0.0,34,0.00,,SKC,0.00,VWS V14.01,2013-09-11 14:40:00,
2013-09-11 10:45:00,85.3,53.8,29.65,SSE,147,0.0,0.0,34,0.00,,SKC,0.00,VWS V14.01,2013-09-11 14:45:00,
2013-09-11 10:50:00,85.5,53.1,29.65,SE,127,0.0,0.0,33,0.00,,SKC,0.00,VWS V14.01,2013-09-11 14:50:00,
2013-09-11 10:55:00,85.6,54.1,29.65,SE,133,0.0,0.0,34,0.00,,SKC,0.00,VWS V14.01,2013-09-11 14:55:00,
2013-09-11 11:00:00,86.2,53.7,29.65,SE,133,0.0,0.0,33,0.00,,SKC,0.00,VWS V14.01,2013-09-11 15:00:00,
2013-09-11 11:05:00,86.4,53.9,29.65,SSE,159,0.0,2.2,33,0.00,,SKC,0.00,VWS V14.01,2013-09-11 15:05:00,
2013-09-11 11:10:00,86.5,53.2,29.65,East,100,0.0,0.0,32,0.00,,SKC,0.00,VWS V14.01,2013-09-11 15:10:00,
2013-09-11 11:15:00,86.7,54.2,29.65,South,171,0.0,0.0,33,0.00,,SKC,0.00,VWS V14.01,2013-09-11 15:15:00,
2013-09-11 11:20:00,86.7,54.2,29.65,SW,223,4.0,4.0,33,0.00,,SKC,0.00,VWS V14.01,2013-09-11 15:20:00,
2013-09-11 11:25:00,87.1,52.8,29.65,SSE,147,4.8,4.8,31,0.00,,SKC,0.00,VWS V14.01,2013-09-11 15:25:00,
2013-09-11 11:30:00,87.1,52.8,29.65,East,93,4.8,4.8,31,0.00,,SKC,0.00,VWS V14.01,2013-09-11 15:30:00,
2013-09-11 11:35:00,87.4,54.0,29.65,WSW,257,4.8,4.8,32,0.00,,SKC,0.00,VWS V14.01,2013-09-11 15:35:00,
2013-09-11 11:40:00,87.6,53.3,29.65,SSE,153,4.0,4.0,31,0.00,,SKC,0.00,VWS V14.01,2013-09-11 15:40:00,
2013-09-11 11:45:00,88.2,52.8,29.65,SSW,205,0.0,0.0,30,0.00,,SKC,0.00,VWS V14.01,2013-09-11 15:45:00,
2013-09-11 11:50:00,88.5,52.2,29.65,ESE,104,4.0,4.0,29,0.00,,SKC,0.00,VWS V14.01,2013-09-11 15:50:00,
2013-09-11 11:55:00,88.7,52.4,29.65,SE,139,0.0,0.0,29,0.00,,SKC,0.00,VWS V14.01,2013-09-11 15:55:00,
2013-09-11 12:00:00,89.1,52.7,29.65,ESE,112,4.0,4.0,29,0.00,,SKC,0.00,VWS V14.01,2013-09-11 16:00:00,
2013-09-11 12:05:00,89.2,52.9,29.65,SW,225,0.0,0.0,29,0.00,,SKC,0.00,VWS V14.01,2013-09-11 16:05:00,
2013-09-11 12:10:00,89.4,52.1,29.65,East,101,0.0,2.2,28,0.00,,SKC,0.00,VWS V14.01,2013-09-11 16:10:00,
2013-09-11 12:15:00,89.8,52.4,29.65,SE,126,4.0,4.0,28,0.00,,SKC,0.00,VWS V14.01,2013-09-11 16:15:00,
2013-09-11 12:20:00,90.3,52.8,29.65,SE,131,0.0,0.0,28,0.00,,SKC,0.00,VWS V14.01,2013-09-11 16:20:00,
2013-09-11 12:25:00,90.7,52.1,29.62,NW,320,0.0,2.7,27,0.00,,SKC,0.00,VWS V14.01,2013-09-11 16:25:00,
2013-09-11 12:30:00,90.9,53.3,29.62,ESE,110,0.0,2.7,28,0.00,,SKC,0.00,VWS V14.01,2013-09-11 16:30:00,
2013-09-11 12:35:00,91.0,52.5,29.62,SE,128,0.0,2.7,27,0.00,,SKC,0.00,VWS V14.01,2013-09-11 16:35:00,
2013-09-11 12:40:00,91.0,52.5,29.62,South,173,0.0,3.1,27,0.00,,SKC,0.00,VWS V14.01,2013-09-11 16:40:00,
2013-09-11 12:45:00,91.2,52.6,29.62,SSE,150,0.0,0.0,27,0.00,,SKC,0.00,VWS V14.01,2013-09-11 16:45:00,
2013-09-11 12:50:00,91.4,52.8,29.62,SE,146,0.0,0.0,27,0.00,,SKC,0.00,VWS V14.01,2013-09-11 16:50:00,
2013-09-11 12:55:00,91.9,50.0,29.62,WSW,239,6.4,6.4,24,0.00,,SKC,0.00,VWS V14.01,2013-09-11 16:55:00,
2013-09-11 13:00:00,92.1,50.2,29.62,ESE,121,4.0,4.0,24,0.00,,SKC,0.00,VWS V14.01,2013-09-11 17:00:00,
2013-09-11 13:05:00,92.3,50.3,29.62,SSE,164,0.0,2.7,24,0.00,,SKC,0.00,VWS V14.01,2013-09-11 17:05:00,
2013-09-11 13:10:00,92.5,49.3,29.62,South,187,0.0,2.7,23,0.00,,SKC,0.00,VWS V14.01,2013-09-11 17:10:00,
2013-09-11 13:15:00,92.7,49.5,29.62,SSW,209,0.0,2.2,23,0.00,,SKC,0.00,VWS V14.01,2013-09-11 17:15:00,
2013-09-11 13:20:00,92.8,49.6,29.62,South,172,0.0,2.7,23,0.00,,SKC,0.00,VWS V14.01,2013-09-11 17:20:00,
2013-09-11 13:25:00,93.0,47.3,29.62,SSE,168,4.8,4.8,21,0.00,,SKC,0.00,VWS V14.01,2013-09-11 17:25:00,
2013-09-11 13:30:00,93.0,48.6,29.62,SSW,193,0.0,2.7,22,0.00,,SKC,0.00,VWS V14.01,2013-09-11 17:30:00,
2013-09-11 13:35:00,93.4,48.9,29.62,SSE,157,0.0,0.0,22,0.00,,SKC,0.00,VWS V14.01,2013-09-11 17:35:00,
2013-09-11 13:40:00,93.7,48.0,29.59,South,183,0.0,0.0,21,0.00,,SKC,0.00,VWS V14.01,2013-09-11 17:40:00,
2013-09-11 13:45:00,93.7,46.7,29.59,ESE,120,4.8,4.8,20,0.00,,SKC,0.00,VWS V14.01,2013-09-11 17:45:00,
2013-09-11 13:50:00,93.4,47.7,29.59,SSE,157,4.8,4.8,21,0.00,,SKC,0.00,VWS V14.01,2013-09-11 17:50:00,
2013-09-11 13:55:00,93.6,47.8,29.59,SSE,149,4.0,4.0,21,0.00,,SKC,0.00,VWS V14.01,2013-09-11 17:55:00,
2013-09-11 14:00:00,93.7,48.0,29.59,SSE,167,5.6,5.6,21,0.00,,SKC,0.00,VWS V14.01,2013-09-11 18:00:00,
2013-09-11 14:05:00,94.1,48.2,29.59,SSE,163,5.6,5.6,21,0.00,,SKC,0.00,VWS V14.01,2013-09-11 18:05:00,
2013-09-11 14:10:00,93.9,46.8,29.59,ESE,123,4.0,4.0,20,0.00,,SKC,0.00,VWS V14.01,2013-09-11 18:10:00,
2013-09-11 14:15:00,94.1,47.0,29.59,ESE,114,5.6,5.6,20,0.00,,SKC,0.00,VWS V14.01,2013-09-11 18:15:00,
2013-09-11 14:20:00,94.3,47.1,29.59,ESE,121,4.8,4.8,20,0.00,,SKC,0.00,VWS V14.01,2013-09-11 18:20:00,
2013-09-11 14:25:00,93.7,46.7,29.59,East,97,0.0,2.7,20,0.00,,SKC,0.00,VWS V14.01,2013-09-11 18:25:00,
2013-09-11 14:30:00,93.6,47.8,29.59,North,11,0.0,0.0,21,0.00,,SKC,0.00,VWS V14.01,2013-09-11 18:30:00,
2013-09-11 14:35:00,93.7,46.7,29.59,South,178,4.8,4.8,20,0.00,,SKC,0.00,VWS V14.01,2013-09-11 18:35:00,
2013-09-11 14:40:00,93.7,46.7,29.59,SSW,203,4.0,4.0,20,0.00,,SKC,0.00,VWS V14.01,2013-09-11 18:40:00,
2013-09-11 14:45:00,93.6,47.8,29.59,ESE,108,5.6,5.6,21,0.00,,SKC,0.00,VWS V14.01,2013-09-11 18:45:00,
2013-09-11 14:50:00,93.6,47.8,29.59,ESE,123,0.0,4.9,21,0.00,,SKC,0.00,VWS V14.01,2013-09-11 18:50:00,
2013-09-11 14:55:00,93.7,46.7,29.56,SSE,167,4.8,4.8,20,0.00,,SKC,0.00,VWS V14.01,2013-09-11 18:55:00,
2013-09-11 15:00:00,93.9,46.8,29.56,SE,137,4.0,4.0,20,0.00,,SKC,0.00,VWS V14.01,2013-09-11 19:00:00,
2013-09-11 15:05:00,93.6,46.5,29.56,SSE,153,4.0,4.0,20,0.00,,SKC,0.00,VWS V14.01,2013-09-11 19:05:00,
2013-09-11 15:10:00,93.4,47.7,29.56,ESE,112,5.6,5.6,21,0.00,,SKC,0.00,VWS V14.01,2013-09-11 19:10:00,
2013-09-11 15:15:00,93.4,47.7,29.56,SE,138,5.6,5.6,21,0.00,,SKC,0.00,VWS V14.01,2013-09-11 19:15:00,
2013-09-11 15:20:00,93.0,47.3,29.56,SSE,155,0.0,0.0,21,0.00,,SKC,0.00,VWS V14.01,2013-09-11 19:20:00,
2013-09-11 15:25:00,93.0,48.6,29.56,South,186,0.0,0.0,22,0.00,,SKC,0.00,VWS V14.01,2013-09-11 19:25:00,
2013-09-11 15:30:00,93.4,47.7,29.56,SSW,201,0.0,0.0,21,0.00,,SKC,0.00,VWS V14.01,2013-09-11 19:30:00,
2013-09-11 15:34:00,93.6,47.8,29.56,SW,220,4.0,4.0,21,0.00,,SKC,0.00,VWS V14.01,2013-09-11 19:34:00,
2013-09-11 15:39:00,93.2,47.5,29.56,SW,215,4.0,4.0,21,0.00,,SKC,0.00,VWS V14.01,2013-09-11 19:39:00,
2013-09-11 15:44:00,92.7,48.3,29.56,SSE,164,5.6,5.6,22,0.00,,SKC,0.00,VWS V14.01,2013-09-11 19:44:00,
2013-09-11 15:49:00,91.9,47.7,29.56,SSE,158,0.0,0.0,22,0.00,,SKC,0.00,VWS V14.01,2013-09-11 19:49:00,
2013-09-11 15:54:00,91.8,48.7,29.56,South,169,0.0,0.0,23,0.00,,SKC,0.00,VWS V14.01,2013-09-11 19:54:00,
2013-09-11 15:59:00,91.8,48.7,29.56,ESE,105,4.0,4.0,23,0.00,,SKC,0.00,VWS V14.01,2013-09-11 19:59:00,
2013-09-11 16:04:00,91.6,48.6,29.56,SE,129,0.0,0.0,23,0.00,,SKC,0.00,VWS V14.01,2013-09-11 20:04:00,
2013-09-11 16:09:00,91.6,49.7,29.56,ESE,109,4.8,4.8,24,0.00,,SKC,0.00,VWS V14.01,2013-09-11 20:09:00,
2013-09-11 16:14:00,91.8,49.9,29.56,SSE,160,4.0,4.0,24,0.00,,SKC,0.00,VWS V14.01,2013-09-11 20:14:00,
2013-09-11 16:19:00,92.3,50.3,29.56,NNE,25,0.0,0.0,24,0.00,,SKC,0.00,VWS V14.01,2013-09-11 20:19:00,
2013-09-11 16:24:00,92.8,48.4,29.53,SSE,150,0.0,0.0,22,0.00,,SKC,0.00,VWS V14.01,2013-09-11 20:24:00,
2013-09-11 16:29:00,93.2,47.5,29.53,SSW,209,4.8,4.8,21,0.00,,SKC,0.00,VWS V14.01,2013-09-11 20:29:00,
2013-09-11 16:34:00,93.2,47.5,29.53,SE,137,0.0,2.2,21,0.00,,SKC,0.00,VWS V14.01,2013-09-11 20:34:00,
2013-09-11 16:39:00,93.2,47.5,29.53,SSE,165,0.0,3.1,21,0.00,,SKC,0.00,VWS V14.01,2013-09-11 20:39:00,
2013-09-11 16:44:00,92.8,47.2,29.53,SSW,201,0.0,0.0,21,0.00,,SKC,0.00,VWS V14.01,2013-09-11 20:44:00,
2013-09-11 16:49:00,92.5,48.2,29.53,ESE,117,0.0,0.0,22,0.00,,SKC,0.00,VWS V14.01,2013-09-11 20:49:00,
2013-09-11 16:54:00,92.1,47.8,29.53,ESE,116,4.8,4.8,22,0.00,,SKC,0.00,VWS V14.01,2013-09-11 20:54:00,
2013-09-11 16:59:00,91.6,47.4,29.53,NNE,15,0.0,0.0,22,0.00,,SKC,0.00,VWS V14.01,2013-09-11 20:59:00,
2013-09-11 17:04:00,91.2,48.3,29.53,North,9,4.0,4.0,23,0.00,,SKC,0.00,VWS V14.01,2013-09-11 21:04:00,
2013-09-11 17:09:00,91.0,49.3,29.53,ESE,105,4.8,4.8,24,0.00,,SKC,0.00,VWS V14.01,2013-09-11 21:09:00,
2013-09-11 17:14:00,90.9,49.1,29.53,South,170,4.0,4.0,24,0.00,,SKC,0.00,VWS V14.01,2013-09-11 21:14:00,
2013-09-11 17:19:00,90.7,49.0,29.53,SSW,199,5.6,5.6,24,0.00,,SKC,0.00,VWS V14.01,2013-09-11 21:19:00,
2013-09-11 17:24:00,90.5,49.9,29.53,SSE,155,4.8,4.8,25,0.00,,SKC,0.00,VWS V14.01,2013-09-11 21:24:00,
2013-09-11 17:29:00,90.1,48.5,29.53,SSE,156,0.0,0.0,24,0.00,,SKC,0.00,VWS V14.01,2013-09-11 21:29:00,
2013-09-11 17:34:00,90.1,49.6,29.53,SE,145,0.0,2.7,25,0.00,,SKC,0.00,VWS V14.01,2013-09-11 21:34:00,
2013-09-11 17:39:00,89.8,49.3,29.53,South,173,0.0,0.0,25,0.00,,SKC,0.00,VWS V14.01,2013-09-11 21:39:00,
2013-09-11 17:44:00,89.6,50.2,29.53,SSW,210,0.0,0.0,26,0.00,,SKC,0.00,VWS V14.01,2013-09-11 21:44:00,
2013-09-11 17:49:00,89.6,51.2,29.53,ESE,113,0.0,0.0,27,0.00,,SKC,0.00,VWS V14.01,2013-09-11 21:49:00,
2013-09-11 17:54:00,89.4,51.1,29.53,NNW,340,4.0,4.0,27,0.00,,SKC,0.00,VWS V14.01,2013-09-11 21:54:00,
2013-09-11 17:59:00,89.2,49.9,29.53,ESE,102,0.0,2.2,26,0.00,,SKC,0.00,VWS V14.01,2013-09-11 21:59:00,
2013-09-11 18:04:00,89.2,50.9,29.53,ESE,123,0.0,0.0,27,0.00,,SKC,0.00,VWS V14.01,2013-09-11 22:04:00,
2013-09-11 18:09:00,89.2,51.9,29.56,SE,124,0.0,0.0,28,0.00,,SKC,0.00,VWS V14.01,2013-09-11 22:09:00,
2013-09-11 18:14:00,88.9,51.6,29.56,ESE,123,0.0,0.0,28,0.00,,SKC,0.00,VWS V14.01,2013-09-11 22:14:00,
2013-09-11 18:19:00,88.5,51.3,29.56,ESE,110,0.0,0.0,28,0.00,,SKC,0.00,VWS V14.01,2013-09-11 22:19:00,
2013-09-11 18:24:00,88.3,51.1,29.53,ESE,116,0.0,0.0,28,0.00,,SKC,0.00,VWS V14.01,2013-09-11 22:24:00,
2013-09-11 18:29:00,88.2,51.0,29.53,NW,315,4.0,4.0,28,0.00,,SKC,0.00,VWS V14.01,2013-09-11 22:29:00,
2013-09-11 18:34:00,88.0,50.8,29.53,WSW,256,0.0,0.0,28,0.00,,SKC,0.00,VWS V14.01,2013-09-11 22:34:00,
2013-09-11 18:39:00,87.6,51.5,29.56,WSW,256,0.0,0.0,29,0.00,,SKC,0.00,VWS V14.01,2013-09-11 22:39:00,
2013-09-11 18:44:00,87.6,51.5,29.56,East,101,4.8,4.8,29,0.00,,SKC,0.00,VWS V14.01,2013-09-11 22:44:00,
2013-09-11 18:49:00,87.6,51.5,29.56,NW,305,0.0,0.0,29,0.00,,SKC,0.00,VWS V14.01,2013-09-11 22:49:00,
2013-09-11 18:54:00,87.1,51.0,29.56,NW,305,0.0,0.0,29,0.00,,SKC,0.00,VWS V14.01,2013-09-11 22:54:00,
2013-09-11 18:59:00,86.7,50.7,29.56,NW,305,0.0,0.0,29,0.00,,SKC,0.00,VWS V14.01,2013-09-11 22:59:00,
2013-09-11 19:04:00,86.5,50.5,29.56,NW,305,0.0,0.0,29,0.00,,SKC,0.00,VWS V14.01,2013-09-11 23:04:00,
2013-09-11 19:09:00,86.5,51.5,29.56,ESE,120,0.0,0.0,30,0.00,,SKC,0.00,VWS V14.01,2013-09-11 23:09:00,
2013-09-11 19:14:00,86.4,51.3,29.56,ESE,120,0.0,0.0,30,0.00,,SKC,0.00,VWS V14.01,2013-09-11 23:14:00,
2013-09-11 19:19:00,86.2,51.1,29.56,ESE,120,0.0,0.0,30,0.00,,SKC,0.00,VWS V14.01,2013-09-11 23:19:00,
2013-09-11 19:24:00,86.0,51.0,29.56,SE,133,0.0,0.0,30,0.00,,SKC,0.00,VWS V14.01,2013-09-11 23:24:00,
2013-09-11 19:29:00,85.8,51.7,29.56,SE,133,0.0,0.0,31,0.00,,SKC,0.00,VWS V14.01,2013-09-11 23:29:00,
2013-09-11 19:34:00,85.8,51.7,29.56,East,93,0.0,0.0,31,0.00,,SKC,0.00,VWS V14.01,2013-09-11 23:34:00,
2013-09-11 19:39:00,85.5,51.4,29.56,East,93,0.0,0.0,31,0.00,,SKC,0.00,VWS V14.01,2013-09-11 23:39:00,
2013-09-11 19:44:00,85.5,51.4,29.56,East,93,0.0,0.0,31,0.00,,SKC,0.00,VWS V14.01,2013-09-11 23:44:00,
2013-09-11 19:49:00,85.1,52.0,29.56,East,93,0.0,0.0,32,0.00,,SKC,0.00,VWS V14.01,2013-09-11 23:49:00,
2013-09-11 19:54:00,84.7,51.6,29.56,East,93,0.0,0.0,32,0.00,,SKC,0.00,VWS V14.01,2013-09-11 23:54:00,
2013-09-11 19:59:00,84.6,51.5,29.56,East,93,0.0,0.0,32,0.00,,SKC,0.00,VWS V14.01,2013-09-11 23:59:00,
2013-09-11 20:04:00,84.4,51.3,29.56,East,93,0.0,0.0,32,0.00,,SKC,0.00,VWS V14.01,2013-09-12 00:04:00,
2013-09-11 20:09:00,84.2,52.0,29.56,East,93,0.0,0.0,33,0.00,,SKC,0.00,VWS V14.01,2013-09-12 00:09:00,
2013-09-11 20:14:00,84.0,51.8,29.56,East,93,0.0,0.0,33,0.00,,SKC,0.00,VWS V14.01,2013-09-12 00:14:00,
2013-09-11 20:19:00,83.8,51.7,29.56,East,93,0.0,0.0,33,0.00,,SKC,0.00,VWS V14.01,2013-09-12 00:19:00,
2013-09-11 20:24:00,83.8,51.7,29.59,East,93,0.0,0.0,33,0.00,,SKC,0.00,VWS V14.01,2013-09-12 00:24:00,
2013-09-11 20:29:00,83.8,51.7,29.59,East,93,0.0,0.0,33,0.00,,SKC,0.00,VWS V14.01,2013-09-12 00:29:00,
2013-09-11 20:34:00,83.8,51.7,29.59,East,93,0.0,0.0,33,0.00,,SKC,0.00,VWS V14.01,2013-09-12 00:34:00,
2013-09-11 20:39:00,83.8,51.7,29.59,East,93,0.0,0.0,33,0.00,,SKC,0.00,VWS V14.01,2013-09-12 00:39:00,
2013-09-11 20:44:00,82.8,53.1,29.59,East,93,0.0,0.0,36,0.00,,SKC,0.00,VWS V14.01,2013-09-12 00:44:00,
2013-09-11 20:49:00,82.8,53.1,29.59,East,93,0.0,0.0,36,0.00,,SKC,0.00,VWS V14.01,2013-09-12 00:49:00,
2013-09-11 20:54:00,82.8,53.1,29.59,ESE,110,4.8,4.8,36,0.00,,SKC,0.00,VWS V14.01,2013-09-12 00:54:00,
2013-09-11 20:59:00,82.8,53.1,29.59,ESE,122,0.0,0.0,36,0.00,,SKC,0.00,VWS V14.01,2013-09-12 00:59:00,
2013-09-11 21:04:00,82.8,53.1,29.59,SE,127,0.0,0.0,36,0.00,,SKC,0.00,VWS V14.01,2013-09-12 01:04:00,
2013-09-11 21:09:00,82.8,53.1,29.59,SE,127,0.0,0.0,36,0.00,,SKC,0.00,VWS V14.01,2013-09-12 01:09:00,
2013-09-11 21:14:00,82.8,53.1,29.59,East,92,0.0,0.0,36,0.00,,SKC,0.00,VWS V14.01,2013-09-12 01:14:00,
2013-09-11 21:19:00,82.8,53.1,29.59,East,93,0.0,0.0,36,0.00,,SKC,0.00,VWS V14.01,2013-09-12 01:19:00,
2013-09-11 21:24:00,82.8,53.1,29.59,East,96,0.0,2.7,36,0.00,,SKC,0.00,VWS V14.01,2013-09-12 01:24:00,
2013-09-11 21:29:00,81.1,48.5,29.59,East,96,0.0,0.0,32,0.00,,SKC,0.00,VWS V14.01,2013-09-12 01:29:00,
2013-09-11 21:34:00,81.1,49.3,29.59,SE,130,0.0,0.0,33,0.00,,SKC,0.00,VWS V14.01,2013-09-12 01:34:00,
2013-09-11 21:39:00,81.1,49.3,29.59,SW,225,0.0,0.0,33,0.00,,SKC,0.00,VWS V14.01,2013-09-12 01:39:00,
2013-09-11 21:44:00,80.4,47.9,29.59,SW,225,0.0,0.0,32,0.00,,SKC,0.00,VWS V14.01,2013-09-12 01:44:00,
2013-09-11 21:49:00,80.1,47.6,29.59,SW,225,0.0,0.0,32,0.00,,SKC,0.00,VWS V14.01,2013-09-12 01:49:00,
2013-09-11 21:54:00,79.9,47.4,29.59,SW,225,0.0,0.0,32,0.00,,SKC,0.00,VWS V14.01,2013-09-12 01:54:00,
2013-09-11 21:59:00,79.5,47.1,29.59,SW,225,0.0,0.0,32,0.00,,SKC,0.00,VWS V14.01,2013-09-12 01:59:00,
2013-09-11 22:04:00,79.3,47.8,29.59,SE,138,4.0,4.0,33,0.00,,SKC,0.00,VWS V14.01,2013-09-12 02:04:00,
2013-09-11 22:09:00,79.2,47.6,29.59,SE,137,0.0,0.0,33,0.00,,SKC,0.00,VWS V14.01,2013-09-12 02:09:00,
2013-09-11 22:14:00,79.2,47.6,29.59,SE,136,0.0,0.0,33,0.00,,SKC,0.00,VWS V14.01,2013-09-12 02:14:00,
2013-09-11 22:19:00,79.2,47.6,29.59,SE,136,0.0,0.0,33,0.00,,SKC,0.00,VWS V14.01,2013-09-12 02:19:00,
2013-09-11 22:24:00,78.8,47.3,29.59,SE,136,0.0,0.0,33,0.00,,SKC,0.00,VWS V14.01,2013-09-12 02:24:00,
2013-09-11 22:29:00,78.8,47.3,29.59,SE,136,0.0,0.0,33,0.00,,SKC,0.00,VWS V14.01,2013-09-12 02:29:00,
2013-09-11 22:34:00,78.4,47.8,29.59,SE,136,0.0,0.0,34,0.00,,SKC,0.00,VWS V14.01,2013-09-12 02:34:00,
2013-09-11 22:39:00,78.4,47.8,29.56,SE,136,0.0,0.0,34,0.00,,SKC,0.00,VWS V14.01,2013-09-12 02:39:00,
2013-09-11 22:44:00,78.4,47.8,29.56,SE,136,0.0,0.0,34,0.00,,SKC,0.00,VWS V14.01,2013-09-12 02:44:00,
2013-09-11 22:49:00,77.5,48.5,29.56,SE,136,0.0,0.0,36,0.00,,SKC,0.00,VWS V14.01,2013-09-12 02:49:00,
2013-09-11 22:54:00,77.5,48.5,29.56,SE,136,0.0,0.0,36,0.00,,SKC,0.00,VWS V14.01,2013-09-12 02:54:00,
2013-09-11 22:59:00,77.4,48.3,29.56,SE,136,0.0,0.0,36,0.00,,SKC,0.00,VWS V14.01,2013-09-12 02:59:00,
2013-09-11 23:04:00,76.8,48.6,29.56,SE,136,0.0,0.0,37,0.00,,SKC,0.00,VWS V14.01,2013-09-12 03:04:00,
2013-09-11 23:09:00,76.8,48.6,29.56,SE,136,0.0,0.0,37,0.00,,SKC,0.00,VWS V14.01,2013-09-12 03:09:00,
2013-09-11 23:14:00,76.5,49.0,29.56,SE,136,0.0,0.0,38,0.00,,SKC,0.00,VWS V14.01,2013-09-12 03:14:00,
2013-09-11 23:19:00,76.3,48.8,29.56,SE,136,0.0,0.0,38,0.00,,SKC,0.00,VWS V14.01,2013-09-12 03:19:00,
2013-09-11 23:24:00,76.1,48.7,29.56,SE,136,0.0,0.0,38,0.00,,SKC,0.00,VWS V14.01,2013-09-12 03:24:00,
2013-09-11 23:29:00,76.1,48.7,29.56,SE,136,0.0,0.0,38,0.00,,SKC,0.00,VWS V14.01,2013-09-12 03:29:00,
2013-09-11 23:34:00,76.1,48.7,29.56,SE,136,0.0,0.0,38,0.00,,SKC,0.00,VWS V14.01,2013-09-12 03:34:00,
2013-09-11 23:39:00,76.1,48.7,29.56,SE,136,0.0,0.0,38,0.00,,SKC,0.00,VWS V14.01,2013-09-12 03:39:00,
2013-09-11 23:44:00,75.6,50.2,29.56,SE,136,0.0,0.0,41,0.00,,SKC,0.00,VWS V14.01,2013-09-12 03:44:00,
2013-09-11 23:49:00,75.2,49.9,29.56,SE,136,0.0,0.0,41,0.00,,SKC,0.00,VWS V14.01,2013-09-12 03:49:00,
2013-09-11 23:54:00,75.0,50.4,29.56,SE,136,0.0,0.0,42,0.00,,SKC,0.00,VWS V14.01,2013-09-12 03:54:00,
2013-09-11 23:59:00,74.8,50.2,29.56,SE,136,0.0,0.0,42,0.00,,SKC,0.00,VWS V14.01,2013-09-12 03:59:00,